Notices

What's New in latest Release from April 7th, 2021:

- Updated Glossary, including Speed of Maximum Gust, and Total Hourly Precipitation

- Updated national and regional climate services offices contacts and prices information

- Addition of station inventory lists for 1981-2010, 1971-2000, and 1961-1990 Normals.

If you haven't already, please take our survey and provide feedback about our website: https://eccc.sondage-survey.ca/f/LanguageSelection.aspx?s=442ca660-fcf1-47c0-95a9-59707d6fd709

Hourly Data Report for June 21, 2020

TRENTON A
ONTARIO
Current Station Operator: DND

44°07'00.000" N
77°32'00.000" W
86.30 m
6158875
71621
YTR

Download Data

Hourly Data (June 2020)
Hourly Data Report for June 21, 2020
TIME
LST
Temp Definition
°C
Dew Point Definition
°C
Rel Hum Definition
%
Precip. Amount Definition
mm

Wind Dir Definition
10's deg

Wind Spd Definition
km/h
Visibility Definition
km
Stn Press Definition
kPa
Hmdx Definition


Wind Chill Definition


Weather Definition


00:00 19.8 19.0 95     0 11.3 100.40     Clear
01:00 19.9 19.0 95     0 11.3 100.39     Clear
02:00 17.9 17.6 98   32 5 9.7 100.37     Fog
03:00 18.1 17.8 98   9 4 9.7 100.30     Fog
04:00 17.3 17.0 98     0 11.3 100.28     Mainly Clear
05:00 17.4 17.2 99   2 4 19.3 100.32     Mainly Clear
06:00 19.8 18.8 94     0 19.3 100.38     Mainly Clear
07:00 22.5 20.2 87     0 24.1 100.39 30   Clear
08:00 24.3 20.3 78   19 8 24.1 100.39 32   Clear
09:00 26.0 19.6 68   19 8 24.1 100.36 33   Clear
10:00 27.2 17.1 54   22 8 24.1 100.37 33   Clear
11:00 27.9 18.1 55   22 9 24.1 100.36 34   Mainly Clear
12:00 28.3 18.1 54   22 17 24.1 100.36 34   Mainly Clear
13:00 28.2 19.0 57   22 11 24.1 100.33 35   Mainly Clear
14:00 29.4 18.3 51   21 13 24.1 100.29 36   Mainly Clear
15:00 29.2 17.9 51   22 9 24.1 100.22 35   Mainly Clear
16:00 29.6 17.5 48   22 11 24.1 100.16 35   Clear
17:00 30.0 18.3 50   19 8 24.1 100.11 36   Clear
18:00 29.3 19.0 54   22 11 24.1 100.13 36   Clear
19:00 28.0 19.2 59   17 5 24.1 100.14 35   Mainly Clear
20:00 24.9 19.6 72     0 24.1 100.16 32   Mainly Clear
21:00 22.2 19.2 83     0 24.1 100.17 29   Mainly Clear
22:00 21.2 19.1 88   3 4 24.1 100.16 28   Clear
23:00 20.5 18.8 90     0 24.1 100.16 27   Clear

Notes on Data Quality.

Legend

  • E = Estimated
  • M = Missing
  • NA = Not Available*
  • [empty] = Indicates an unobserved value
Date modified: